STARLINK-1531 (46572 NORAD) Tracking and Keplerian Element Data

This shows tracking and keplerian element data for the satellite.

Feedback or suggestion? Click here.




ElementValue
Catalog46572
NameSTARLINK-1531
Epoch Orbit440
Epoch Day303.25001157
Epoch Year2020
RAAN330.0219
Inclination53
Eccentricity0.0001518
Argument of Perigee68.525
Mean Anonmoly206.2619
Mean Motion15.62731826
Decay Rate-7.081E-05
L11 46572U 20070AS 20303.25001157 -.00007081 00000-0 -71619-4 0 9998
L22 46572 53.0000 330.0219 0001518 68.5250 206.2619 15.62731826 4408

Live tracking and technical data element details for STARLINK-1531 (NORAD 46572). STARLINK-1531 can be tracked NOW for your location showing map with azimuth and elevation plus other details from your city location.

Track the satellite on the map from your city or location and see movement details for azimuth, elevation, latitude, longitude, range, height, and movement on the map or in text.







IsCatalogInMostPopularTable: catalog: 46572, numindb: 3
Update: records affected: 1



GetName: 46572 STARLINK-1531

Hit Count: updated at: Fri, 30 Oct 2020 01:33:05 GMT